Temperature
-0 -0 -1 -1 -1 -1 -2 -2 -3 -5 -5 -3 -3 -3 -4 -4 -5 -5 -5 -6 -6 -6 -6 -6 -6 -6 -6 -6 -6 -6 -6 -6 -6 -5 -5 -4 -4 -3
-1 -2 -2 -2 -2 -2 -2 -3 -3 -4 -5 -4 -3 -3 -4 -5 -5 -6 -6 -6 -6 -6 -6 -6 -6 -6 -6 -6 -6 -6 -6 -6 -6 -6 -5 -5 -4 -4
-2 -2 -2 -2 -3 -3 -3 -3 -4 -4 -6 -5 -4 -4 -5 -5 -5 -6 -6 -6 -6 -6 -7 -7 -7 -7 -7 -7 -7 -7 -7 -6 -6 -6 -6 -5 -5 -4
-3 -3 -3 -3 -3 -4 -4 -4 -4 -4 -5 -6 -5 -5 -5 -5 -6 -6 -6 -7 -7 -7 -7 -7 -7 -7 -7 -7 -7 -7 -7 -7 -7 -6 -6 -6 -5 -5
-3 -3 -3 -4 -4 -4 -4 -4 -4 -5 -6 -6 -6 -6 -6 -6 -7 -7 -7 -7 -7 -7 -7 -7 -7 -7 -7 -7 -7 -7 -7 -7 -7 -7 -7 -6 -6 -5
-4 -4 -4 -4 -4 -4 -4 -5 -5 -5 -6 -7 -7 -7 -7 -7 -7 -7 -7 -7 -7 -7 -8 -8 -8 -8 -8 -8 -8 -8 -8 -8 -7 -7 -7 -7 -6 -6
-4 -4 -4 -4 -5 -5 -5 -5 -5 -6 -6 -7 -8 -8 -8 -7 -7 -7 -8 -8 -8 -8 -8 -8 -8 -8 -8 -8 -8 -8 -8 -8 -8 -7 -7 -7 -6 -6
-4 -4 -5 -5 -5 -5 -5 -6 -6 -6 -6 -7 -7 -8 -7 -7 -7 -8 -8 -8 -8 -8 -8 -8 -8 -8 -8 -8 -9 -9 -8 -8 -8 -8 -7 -7 -6 -6
-5 -5 -5 -5 -6 -6 -6 -6 -6 -6 -7 -7 -7 -7 -7 -7 -7 -8 -8 -8 -8 -8 -8 -9 -9 -9 -9 -9 -9 -9 -9 -8 -8 -8 -7 -7 -7 -6
-5 -5 -6 -6 -6 -6 -6 -6 -6 -6 -6 -7 -7 -7 -7 -7 -7 -8 -8 -8 -8 -8 -9 -9 -9 -9 -9 -9 -9 -9 -9 -8 -8 -8 -8 -7 -7 -6
-5 -6 -6 -6 -6 -6 -7 -7 -7 -6 -7 -7 -7 -7 -7 -7 -7 -8 -8 -8 -9 -9 -9 -9 -10 -10 -10 -9 -9 -9 -9 -9 -8 -8 -8 -7 -7 -6
-5 -6 -6 -6 -6 -6 -7 -7 -7 -7 -7 -7 -7 -7 -7 -8 -8 -8 -8 -9 -9 -9 -9 -10 -10 -10 -11 -10 -10 -9 -9 -9 -9 -8 -8 -8 -7 -7
-6 -6 -6 -6 -6 -6 -7 -7 -7 -7 -7 -7 -8 -8 -8 -8 -8 -8 -9 -9 -10 -10 -10 -10 -11 -11 -11 -11 -10 -10 -10 -10 -9 -9 -8 -8 -7 -7
-6 -6 -6 -6 -6 -6 -7 -7 -7 -7 -7 -8 -8 -8 -8 -8 -8 -9 -9 -9 -10 -10 -10 -11 -11 -11 -12 -12 -12 -11 -10 -10 -10 -9 -9 -8 -8 -7
-6 -6 -6 -6 -7 -7 -7 -7 -7 -7 -8 -8 -8 -8 -8 -9 -9 -10 -10 -10 -10 -10 -11 -11 -11 -11 -12 -12 -12 -12 -11 -10 -10 -10 -9 -9 -8 -8
-6 -6 -6 -7 -7 -7 -7 -7 -7 -8 -8 -8 -8 -9 -9 -9 -10 -10 -10 -10 -11 -11 -11 -11 -11 -12 -12 -12 -12 -12 -12 -11 -10 -10 -9 -9 -8 -8
-6 -6 -7 -7 -7 -7 -7 -7 -8 -8 -8 -9 -9 -9 -10 -10 -10 -10 -11 -11 -11 -11 -11 -11 -11 -12 -12 -12 -12 -12 -12 -11 -11 -10 -10 -9 -8 -8
-7 -7 -7 -7 -7 -7 -7 -8 -8 -8 -9 -9 -9 -10 -10 -10 -11 -11 -11 -11 -12 -12 -12 -12 -12 -12 -12 -12 -12 -12 -11 -11 -11 -10 -10 -10 -9 -8
-7 -7 -7 -7 -7 -7 -8 -8 -8 -9 -9 -9 -10 -10 -10 -11 -11 -11 -11 -12 -12 -12 -12 -12 -12 -12 -12 -12 -11 -11 -11 -11 -11 -10 -10 -10 -9 -7
-7 -7 -7 -7 -7 -8 -8 -8 -9 -9 -9 -10 -10 -10 -11 -11 -11 -12 -12 -12 -12 -12 -12 -12 -12 -12 -12 -12 -12 -11 -11 -11 -11 -11 -10 -10 -9 -8
-7 -7 -7 -7 -7 -8 -8 -9 -9 -9 -9 -10 -10 -10 -11 -11 -12 -12 -12 -12 -12 -12 -12 -12 -12 -12 -12 -12 -12 -11 -11 -10 -11 -10 -10 -10 -9 -8
-7 -7 -7 -7 -8 -8 -8 -9 -9 -9 -10 -10 -10 -11 -11 -11 -12 -12 -12 -12 -12 -12 -12 -12 -12 -12 -12 -12 -12 -11 -11 -10 -10 -10 -10 -9 -9 -8
-7 -7 -7 -8 -8 -8 -8 -9 -9 -9 -10 -10 -10 -11 -11 -11 -11 -12 -12 -12 -12 -12 -12 -12 -12 -12 -12 -12 -12 -11 -11 -10 -10 -9 -9 -8 -8 -7
Wind_Speed
18 18 15 12 11 10 9 9 9 8 10 8 7 7 10 13 19 19 18 24 28 30 31 31 32 33 33 34 34 35 35 35 36 36 36 37 37 37
15 16 17 13 11 11 11 10 11 11 9 7 8 6 7 12 19 18 18 27 29 30 31 32 32 33 33 34 34 35 35 35 36 36 37 37 37 37
17 18 19 16 13 12 11 11 12 11 15 10 7 7 9 10 12 16 19 20 22 29 31 32 32 33 33 34 35 35 35 36 36 36 36 37 37 37
20 19 19 16 17 13 12 13 12 12 13 15 10 8 10 10 10 12 14 19 18 26 30 32 32 33 33 34 34 35 35 35 36 36 36 36 36 36
20 20 19 18 18 15 14 14 13 13 12 12 13 10 9 9 10 12 14 11 17 23 27 29 31 31 32 33 33 34 34 34 35 35 35 35 35 35
18 18 18 19 19 17 16 16 14 13 12 11 13 11 11 9 9 11 12 10 12 14 19 23 27 30 31 32 32 33 33 33 33 34 34 34 34 34
17 18 19 23 26 21 17 14 14 13 12 12 13 12 12 10 10 9 12 10 10 10 11 12 13 12 15 25 29 31 32 32 32 33 33 32 32 32
16 16 18 23 28 32 32 28 23 17 15 15 13 14 13 11 10 10 10 11 12 7 10 12 10 11 11 11 24 30 31 31 31 31 32 31 31 32
15 14 15 18 25 18 24 30 28 30 27 18 16 15 13 11 10 12 12 13 14 8 8 13 9 12 11 16 27 29 29 29 30 30 30 30 30 31
15 15 15 15 17 17 15 16 16 17 20 16 13 14 14 11 12 13 14 14 13 9 9 13 12 12 13 10 24 27 28 28 28 28 28 29 30 30
15 15 16 15 24 27 18 16 16 15 22 26 25 23 25 26 20 11 11 12 14 10 7 9 11 11 11 11 15 24 25 25 26 27 27 27 28 27
11 14 23 22 25 27 18 15 16 15 12 13 16 19 16 17 23 13 9 11 11 9 6 7 9 8 9 8 8 8 12 21 25 26 26 26 26 18
10 11 13 25 27 27 24 15 19 15 11 11 11 10 9 8 9 9 9 9 11 11 6 5 8 8 9 9 8 8 9 10 11 15 20 24 25 21
10 9 12 22 25 26 21 20 23 19 9 8 8 8 8 8 8 8 9 10 11 12 10 8 9 10 11 13 11 7 7 9 10 11 10 17 20 23
10 15 16 20 21 17 21 22 17 10 7 7 8 8 7 7 6 6 7 8 9 10 11 11 12 11 11 13 13 11 10 9 9 9 9 10 11 11
10 14 19 19 16 14 13 12 8 7 7 8 7 7 5 5 6 6 6 6 8 9 9 11 12 13 13 13 13 13 11 8 7 9 10 10 10 10
7 6 6 6 8 7 7 7 7 7 8 6 6 6 6 7 7 6 6 7 8 9 8 7 9 10 13 13 13 13 12 12 11 10 11 11 11 10
10 6 7 8 8 8 8 7 7 7 7 6 6 6 7 7 7 7 7 8 10 10 9 8 7 8 8 10 16 14 12 12 11 10 11 12 12 10
9 7 7 8 7 7 7 7 7 7 6 6 7 7 7 7 8 9 8 9 10 10 9 7 8 9 12 12 8 14 12 10 10 10 10 11 12 10
6 7 7 7 6 7 7 7 6 6 6 6 7 7 7 8 9 9 9 9 10 10 9 8 8 9 12 12 9 8 14 11 10 11 10 10 11 14
6 6 6 6 6 6 6 6 6 6 6 6 7 7 7 8 9 9 9 14 13 10 11 10 10 15 10 8 10 9 8 15 16 12 10 9 10 9
6 6 5 6 6 6 6 6 6 6 7 7 7 7 8 8 9 10 10 10 10 10 11 10 9 9 8 10 12 12 10 9 14 21 22 17 10 7
5 5 5 6 6 5 6 6 7 7 7 7 7 8 8 8 8 9 10 10 10 10 10 10 8 8 9 10 11 11 12 11 9 9 11 18 24 26
Wind_Direction
220 217 219 217 213 213 210 207 215 235 240 232 231 227 233 241 251 256 253 262 269 272 274 275 277 279 280 281 282 283 283 283 284 283 282 283 284 285
219 218 220 218 216 214 215 215 218 229 243 226 226 229 240 257 259 261 259 266 269 272 274 276 277 278 279 280 281 281 282 281 281 281 280 281 281 282
219 219 220 215 216 216 215 217 222 225 243 248 242 242 241 249 261 261 262 262 264 269 272 274 276 277 278 279 279 280 280 280 280 279 279 279 279 280
220 218 219 216 216 215 215 219 222 223 234 248 249 246 245 247 252 256 263 264 260 267 271 274 275 276 278 278 278 279 279 279 279 278 277 277 277 279
220 219 218 214 217 216 217 221 224 228 230 241 250 248 252 252 255 260 259 259 263 268 271 273 275 277 278 278 279 279 279 279 277 276 276 275 276 277
219 218 217 215 217 216 218 221 222 225 228 237 247 250 252 247 248 257 263 255 260 264 268 270 273 276 277 278 279 280 280 279 277 276 274 273 272 273
219 218 218 219 221 220 221 220 220 223 228 236 243 248 250 247 247 249 260 263 257 254 260 262 266 266 270 273 277 279 278 278 277 276 274 272 271 271
221 219 221 228 230 230 230 228 222 222 225 231 239 243 246 243 248 252 258 267 271 239 249 262 257 264 264 261 270 275 277 276 276 275 274 273 272 271
219 218 222 225 228 229 235 238 236 235 233 233 239 242 245 244 246 254 255 259 265 258 262 273 266 268 267 269 275 277 277 277 277 275 273 272 272 270
218 216 218 221 222 222 224 231 236 240 242 242 241 246 249 249 245 252 259 264 265 257 249 269 271 269 272 268 276 276 279 280 279 277 274 273 271 270
217 215 217 220 228 229 226 227 233 238 246 248 249 251 255 260 260 260 261 265 270 263 239 253 268 274 273 269 269 274 278 282 283 282 278 275 272 270
216 217 224 225 229 232 228 225 231 234 234 244 251 257 260 264 268 261 256 264 272 273 238 239 261 273 276 260 255 268 280 283 283 284 282 277 273 270
219 217 221 230 232 232 233 229 236 236 229 235 242 245 247 247 250 247 242 246 259 265 254 247 262 261 263 275 273 267 268 274 281 283 283 279 274 270
221 218 220 227 232 235 237 238 241 243 232 230 237 241 243 244 244 242 240 239 243 253 255 250 261 264 269 275 278 272 267 271 274 274 275 276 274 270
221 223 225 230 232 236 240 241 242 235 225 231 240 244 241 241 245 250 250 249 253 253 254 249 252 258 257 265 271 275 281 277 268 268 273 274 269 268
232 229 231 233 230 227 233 240 233 225 225 233 239 243 242 245 250 251 259 261 267 269 256 247 248 252 258 259 263 269 268 267 271 274 274 274 268 261
217 209 214 217 217 217 217 220 219 226 238 229 234 242 249 255 259 254 256 260 264 272 275 263 251 248 250 255 261 261 263 265 265 268 272 273 268 257
226 218 219 218 220 221 219 217 216 221 224 227 232 240 249 256 263 263 261 261 266 269 270 270 269 270 264 252 243 254 257 260 262 262 262 266 268 259
228 222 222 218 217 215 212 213 218 221 219 226 235 239 247 257 263 266 265 266 268 269 269 266 263 266 272 275 253 240 247 256 260 260 257 257 264 266
224 223 220 213 210 211 212 215 218 220 222 228 233 239 244 255 263 266 266 265 270 273 273 265 259 258 260 269 271 260 254 251 255 258 259 260 262 265
221 219 213 208 208 210 212 213 216 222 227 230 236 240 244 251 260 263 266 271 273 274 274 272 265 270 269 264 266 263 253 252 249 252 254 258 263 258
216 214 210 206 205 207 207 210 219 227 231 234 240 244 245 250 257 261 265 268 270 271 274 276 272 272 262 262 266 270 270 263 256 255 253 247 248 245
210 209 208 205 205 204 206 212 221 231 234 238 243 246 248 253 258 261 263 265 269 272 275 279 277 269 265 261 266 269 267 267 264 260 255 250 250 255
Height
1424 1426 1426 1428 1430 1431 1433 1434 1436 1432 1430 1432 1433 1434 1435 1435 1434 1433 1432 1431 1430 1429 1427 1426 1424 1421 1419 1417 1415 1413 1410 1408 1406 1404 1402 1400 1398 1396
1413 1415 1415 1417 1419 1421 1423 1424 1424 1424 1420 1420 1423 1425 1425 1425 1425 1424 1423 1422 1421 1419 1418 1416 1414 1412 1409 1407 1405 1402 1400 1398 1395 1394 1392 1390 1388 1385
1401 1402 1403 1407 1408 1410 1412 1413 1414 1414 1411 1410 1414 1415 1415 1415 1415 1414 1413 1411 1410 1409 1408 1406 1404 1402 1400 1397 1394 1392 1389 1387 1385 1383 1381 1379 1377 1375
1389 1391 1392 1396 1397 1400 1402 1402 1403 1404 1404 1402 1403 1405 1405 1405 1405 1404 1403 1401 1400 1398 1397 1396 1394 1392 1389 1386 1384 1381 1378 1376 1373 1371 1370 1368 1367 1365
1378 1380 1381 1385 1386 1389 1391 1392 1394 1395 1395 1395 1393 1395 1395 1396 1395 1393 1393 1391 1390 1388 1387 1385 1383 1381 1378 1376 1373 1370 1367 1365 1362 1360 1358 1356 1355 1353
1367 1369 1372 1374 1376 1379 1381 1383 1385 1386 1386 1386 1385 1385 1386 1386 1386 1384 1381 1380 1379 1378 1376 1374 1372 1370 1367 1365 1362 1359 1356 1353 1351 1349 1347 1345 1344 1343
1357 1359 1361 1364 1367 1370 1372 1373 1376 1376 1377 1377 1376 1377 1376 1376 1375 1374 1372 1370 1368 1368 1365 1362 1361 1357 1355 1352 1350 1347 1345 1342 1340 1338 1336 1334 1333 1332
1347 1349 1352 1356 1358 1361 1363 1364 1366 1366 1367 1367 1367 1367 1366 1366 1367 1366 1364 1362 1357 1357 1355 1351 1350 1346 1343 1341 1338 1336 1334 1332 1330 1327 1325 1324 1323 1321
1337 1339 1342 1345 1349 1351 1354 1356 1357 1358 1359 1359 1358 1357 1357 1358 1358 1356 1355 1352 1348 1347 1346 1339 1338 1335 1332 1330 1328 1326 1323 1321 1319 1317 1315 1314 1313 1312
1326 1329 1332 1335 1339 1342 1344 1345 1347 1348 1350 1350 1349 1349 1349 1349 1349 1347 1345 1342 1338 1337 1336 1331 1327 1324 1321 1319 1317 1315 1313 1311 1309 1307 1305 1304 1303 1302
1317 1320 1323 1325 1329 1334 1335 1335 1337 1337 1340 1341 1341 1341 1341 1341 1341 1339 1336 1333 1328 1325 1326 1323 1318 1314 1310 1307 1306 1305 1303 1302 1299 1297 1296 1294 1294 1293
1309 1311 1314 1316 1320 1324 1326 1326 1327 1327 1330 1331 1332 1332 1332 1331 1331 1331 1328 1325 1320 1316 1315 1314 1310 1307 1300 1295 1295 1294 1293 1292 1290 1288 1286 1285 1285 1284
1301 1302 1305 1308 1312 1315 1317 1318 1318 1320 1321 1322 1322 1322 1321 1321 1320 1320 1319 1316 1313 1309 1307 1306 1302 1299 1296 1288 1284 1284 1283 1281 1280 1278 1277 1276 1276 1276
1294 1296 1298 1301 1304 1307 1309 1310 1312 1314 1314 1314 1313 1312 1312 1311 1310 1310 1308 1307 1304 1301 1299 1298 1294 1291 1287 1281 1276 1274 1273 1272 1271 1268 1267 1267 1266 1266
1287 1290 1292 1295 1297 1299 1301 1303 1305 1306 1306 1305 1305 1304 1304 1303 1302 1301 1299 1297 1294 1292 1290 1288 1285 1282 1279 1274 1269 1267 1264 1262 1262 1260 1259 1258 1258 1258
1282 1284 1287 1289 1291 1292 1294 1295 1296 1297 1298 1297 1297 1297 1296 1295 1294 1292 1290 1288 1285 1281 1280 1278 1276 1273 1269 1266 1263 1259 1258 1255 1253 1253 1252 1251 1250 1250
1277 1278 1280 1282 1284 1285 1286 1287 1289 1290 1290 1290 1290 1289 1288 1287 1286 1284 1283 1280 1277 1273 1270 1269 1267 1264 1261 1258 1255 1251 1250 1247 1246 1245 1244 1242 1242 1243
1272 1272 1274 1275 1277 1278 1279 1280 1281 1282 1283 1283 1283 1282 1281 1280 1278 1277 1275 1272 1269 1266 1263 1260 1258 1255 1252 1248 1247 1243 1242 1240 1239 1238 1237 1236 1234 1235
1266 1267 1268 1269 1271 1272 1273 1274 1275 1276 1276 1276 1276 1275 1274 1273 1271 1269 1267 1265 1261 1258 1256 1254 1251 1249 1245 1239 1236 1237 1235 1233 1232 1231 1230 1229 1227 1227
1261 1261 1262 1264 1265 1266 1267 1268 1268 1269 1269 1269 1269 1268 1267 1266 1264 1262 1260 1257 1254 1251 1248 1246 1244 1241 1238 1234 1230 1228 1229 1227 1226 1224 1223 1222 1222 1222
1255 1256 1257 1258 1259 1261 1261 1262 1262 1262 1262 1262 1261 1261 1260 1258 1256 1255 1252 1250 1248 1244 1241 1237 1235 1234 1231 1228 1224 1219 1219 1220 1219 1218 1217 1217 1216 1216
1250 1251 1252 1254 1254 1255 1256 1256 1256 1256 1256 1255 1255 1254 1253 1251 1249 1247 1245 1243 1240 1237 1233 1230 1228 1226 1223 1220 1216 1212 1211 1210 1210 1210 1211 1211 1211 1211
1246 1247 1248 1248 1249 1250 1250 1250 1250 1250 1249 1249 1248 1247 1246 1244 1242 1240 1238 1235 1232 1229 1226 1223 1220 1218 1215 1213 1210 1206 1204 1203 1202 1202 1201 1203 1204 1205